GFSMW_850_thetae_057.txt.gz
Theta_e
321 319 319 319 320 322 323 324 324 323 325 324 321 318 316 316 317 316 317 317 319 316 319 318 318 317 320 320 320 320 320 320 320 319 318 317 314 312 312 310 309 309 311
321 321 319 319 319 319 320 321 322 323 323 323 322 317 316 316 318 318 317 320 319 316 318 315 316 318 320 320 320 320 320 321 321 320 318 315 316 317 315 314 313 311 309
322 321 321 318 319 318 318 318 321 322 323 324 322 322 321 319 317 318 321 321 319 316 317 316 320 320 320 320 319 320 321 321 321 321 320 318 317 318 317 316 314 313 311
322 322 321 319 318 317 317 317 319 321 322 323 322 321 320 316 316 321 319 317 316 317 316 319 316 318 318 319 317 316 318 319 320 321 321 320 320 318 315 316 317 314 313
321 322 323 321 317 317 317 317 318 320 320 321 323 321 321 317 320 320 315 316 317 316 316 315 315 317 317 317 317 317 319 319 320 320 320 320 320 319 315 315 316 315 316
322 322 323 322 320 317 316 317 319 321 320 322 323 320 321 318 321 319 314 319 319 317 317 316 316 316 315 315 314 317 319 319 320 320 321 321 320 319 320 315 316 315 315
321 322 323 323 321 318 316 317 318 320 321 322 323 321 319 317 320 318 315 318 319 318 316 315 316 316 314 314 314 314 314 317 318 318 318 320 321 321 321 316 315 315 316
321 322 323 323 322 320 316 315 317 320 320 320 320 320 319 317 317 320 316 316 319 317 316 316 316 316 316 316 315 315 314 313 315 318 319 320 321 319 321 321 314 315 314
321 322 322 323 323 322 320 315 315 317 318 319 320 320 319 318 318 319 320 317 319 319 317 316 316 315 315 315 316 316 315 314 316 318 320 317 319 320 321 320 319 314 313
322 322 322 323 323 323 322 320 316 314 316 317 317 318 319 319 319 319 318 317 318 319 319 318 316 315 314 316 316 316 316 314 317 317 319 319 320 321 321 320 319 317 314
319 322 323 323 323 324 323 322 320 318 315 315 316 315 316 317 318 318 317 317 317 319 318 317 316 315 314 316 316 315 314 316 318 321 321 321 321 321 321 320 318 316 315
318 321 321 322 323 323 324 324 322 321 321 318 315 315 315 315 315 316 316 316 316 316 316 315 315 315 315 315 314 314 315 317 322 322 322 322 321 321 321 320 318 316 314
319 319 320 321 322 322 323 323 323 323 322 321 319 317 315 315 315 315 319 315 315 315 315 315 315 315 315 315 315 316 320 321 321 320 320 319 321 321 320 320 317 316 311
320 320 320 320 320 321 322 322 323 323 323 322 321 321 320 319 316 315 315 315 315 315 315 315 315 316 316 317 316 317 320 319 319 320 320 318 321 321 319 318 316 313 309
320 320 320 320 320 321 322 322 322 322 323 323 322 322 323 323 320 317 316 316 316 316 316 316 316 315 315 315 316 318 320 322 322 321 318 321 321 320 318 317 313 310 307
319 319 320 320 319 320 321 321 322 321 322 322 322 323 323 322 323 323 321 319 318 317 317 317 318 318 319 320 319 321 322 322 322 321 321 321 319 318 316 312 308 307 306
319 319 319 319 321 320 320 320 320 321 321 320 321 321 322 322 322 322 322 321 321 320 320 319 319 319 320 321 322 322 323 322 323 322 321 319 317 314 312 307 306 304 302
316 317 318 318 318 319 320 320 320 320 321 321 321 321 321 321 322 322 322 322 322 322 322 322 323 323 324 323 323 322 322 321 322 320 318 316 314 310 307 306 304 301 300
316 316 317 318 318 317 319 319 319 319 320 322 321 321 322 322 323 323 323 323 323 323 323 323 323 322 322 322 322 321 320 319 317 315 313 311 309 307 305 302 300 299 297
317 318 318 318 318 317 317 318 318 318 319 321 322 322 323 323 324 324 324 324 324 323 323 322 321 321 320 320 320 320 317 315 313 310 307 305 304 303 300 298 296 295 294
317 317 318 318 318 317 317 317 317 318 319 321 322 322 323 324 324 325 324 323 323 322 321 321 320 319 317 317 312 311 312 311 309 307 304 301 299 298 296 295 294 291 288
317 319 319 318 318 318 318 318 319 321 323 324 325 325 325 324 324 323 321 321 320 319 318 316 313 310 309 307 305 305 305 305 305 303 300 298 296 295 294 292 290 285 283
316 318 319 321 322 323 323 323 323 323 324 325 325 325 323 323 321 320 319 318 316 313 311 308 307 304 303 302 301 300 300 299 298 298 297 295 294 293 290 286 283 282 282
312 315 316 321 321 321 322 323 323 323 323 324 322 321 319 319 318 315 313 311 309 308 307 306 305 304 301 300 298 298 297 296 296 295 293 292 290 285 283 281 282 283 282
310 311 314 313 318 319 319 318 318 319 320 319 317 316 316 314 312 309 306 305 304 304 304 302 301 300 299 297 296 296 295 294 293 292 290 288 284 281 283 284 284 281 280
306 304 305 309 307 313 314 315 313 312 316 315 312 311 309 306 304 304 302 300 300 299 298 298 297 297 296 296 294 293 293 291 289 287 284 281 281 284 283 281 279 280 279

GFSMW_850_thetae_060.txt.gz
Theta_e
326 323 322 323 323 323 323 325 325 325 325 322 319 317 317 319 317 316 320 317 318 317 318 319 316 319 320 320 318 319 318 316 313 311 313 314 315 313 311 310 310 312 311
326 324 323 323 322 323 322 323 324 324 324 324 321 318 316 318 318 318 318 317 318 317 317 318 318 318 321 320 320 320 319 318 316 316 317 317 315 317 317 316 312 312 311
327 325 323 322 322 321 321 321 323 323 323 323 324 318 317 319 319 318 316 317 317 317 317 318 318 318 319 320 320 320 320 320 318 319 320 320 320 320 317 316 313 314 314
327 326 324 323 322 322 320 321 320 322 322 324 323 322 320 318 318 319 317 316 317 320 320 317 318 318 318 319 320 320 320 320 321 319 320 320 321 320 320 316 316 315 317
327 326 325 323 322 321 320 319 319 321 322 322 323 323 321 319 317 316 317 319 317 317 320 318 318 315 319 320 320 320 319 317 319 321 320 320 320 320 320 318 317 318 318
326 326 325 324 322 321 321 319 320 320 322 322 323 322 322 320 317 317 319 319 317 319 321 317 317 316 319 316 316 317 317 317 318 320 321 320 319 319 319 319 319 319 314
325 326 325 324 323 321 320 319 319 320 320 322 323 323 322 322 321 319 318 317 321 320 319 316 317 318 316 315 316 316 317 316 317 319 320 319 318 319 319 320 320 318 317
325 326 326 325 324 322 320 317 318 320 319 321 322 323 322 321 322 320 317 318 320 317 316 316 317 315 315 315 316 316 318 317 315 315 315 318 318 318 318 320 319 317 318
325 326 326 326 325 323 319 316 318 321 319 320 322 322 322 320 320 320 317 318 319 316 315 316 317 317 316 316 316 316 316 318 318 319 318 319 316 318 320 318 318 319 315
324 326 326 326 326 324 321 318 317 320 322 321 320 321 321 322 322 321 319 319 319 316 315 318 318 317 316 316 316 317 318 318 319 320 320 320 315 317 318 320 318 317 316
325 326 326 326 326 325 323 321 318 320 321 321 321 321 321 321 322 321 320 320 320 319 319 319 319 319 318 318 318 318 318 318 318 320 320 318 315 315 319 320 320 320 319
322 324 326 327 326 326 325 323 321 320 319 320 321 321 321 321 320 320 320 320 321 320 320 320 319 319 319 318 318 318 318 319 319 321 320 316 316 319 321 321 321 320 321
321 324 324 326 326 326 325 324 323 322 321 320 319 319 318 319 318 318 319 320 320 320 321 320 319 319 318 319 319 319 318 317 318 317 317 315 319 321 319 318 318 318 320
321 321 323 323 325 326 325 325 324 323 322 321 320 319 317 316 315 316 317 317 318 319 319 319 318 318 319 318 317 316 315 315 315 314 317 317 319 318 319 318 317 320 319
321 321 320 321 323 324 325 325 324 324 323 322 321 321 321 319 317 317 316 316 316 316 315 316 317 316 316 317 317 318 315 315 316 317 317 316 319 317 320 318 316 317 317
319 320 321 320 320 322 323 324 322 322 322 322 322 322 321 321 321 320 318 317 316 316 316 316 316 317 318 316 316 316 316 317 316 317 319 323 322 321 320 318 317 316 314
318 317 317 318 318 320 320 323 324 324 322 322 321 322 322 322 321 321 320 320 320 319 319 318 318 318 319 319 317 317 317 318 319 321 321 322 322 322 320 316 315 312 309
319 319 319 317 317 318 318 319 322 324 321 321 322 322 322 322 322 321 321 321 321 321 320 321 321 320 320 320 320 320 320 321 321 322 322 321 321 321 320 316 312 308 305
318 318 318 318 317 317 317 317 318 321 324 324 323 324 323 322 322 321 321 321 321 321 321 321 321 322 322 322 323 322 321 320 320 319 318 318 316 313 311 307 304 301 301
317 318 319 320 320 318 317 316 317 320 322 323 324 324 324 323 323 322 322 322 321 322 323 324 323 323 323 322 321 321 320 319 319 317 315 312 308 308 304 303 302 300 299
315 316 318 318 318 317 318 318 320 320 321 322 323 323 323 323 323 323 323 323 323 323 324 324 323 322 322 321 320 320 318 316 315 312 308 303 301 301 300 298 297 296 294
312 313 315 312 318 319 318 321 320 318 319 319 320 321 322 322 322 323 324 324 322 322 321 321 319 318 316 313 311 308 306 307 306 304 300 299 298 298 296 295 294 293 289
306 308 312 316 315 315 318 318 318 321 322 322 323 323 323 323 323 321 321 320 319 319 319 318 314 310 307 305 302 302 303 302 302 300 299 297 296 295 294 293 292 286 284
308 301 312 316 314 309 310 315 317 318 318 320 320 319 318 317 317 316 314 314 314 311 308 308 305 302 301 301 301 301 299 298 297 296 294 293 292 292 290 290 286 283 283
306 301 304 313 311 307 306 310 312 315 317 316 315 314 313 314 313 309 305 304 304 305 304 302 301 300 298 297 297 297 296 295 293 292 291 290 289 288 285 283 284 284 284
302 299 300 303 307 302 303 304 306 309 313 311 309 308 306 304 305 304 301 298 299 299 299 298 298 296 296 294 293 293 292 292 292 289 288 286 285 283 283 282 281 281 280

GFSMW_850_thetae_066.txt.gz
Theta_e
329 330 327 326 328 329 328 328 327 327 325 325 325 322 323 324 323 322 321 318 321 315 320 321 322 322 322 322 321 319 319 319 318 318 318 318 318 317 318 318 317 318 319
330 330 327 326 328 329 326 325 325 324 325 325 323 321 323 323 322 321 320 318 316 316 321 321 321 321 320 320 320 319 318 317 317 316 316 316 316 316 316 315 314 315 314
329 330 328 326 327 329 328 326 324 324 325 325 323 321 322 322 321 320 317 315 315 316 318 319 317 317 317 317 318 317 316 316 316 315 315 315 316 316 315 315 315 314 313
328 330 329 327 327 328 328 325 323 324 325 326 323 321 321 321 320 319 317 316 316 315 318 316 315 314 315 318 316 315 317 319 318 316 314 318 320 320 319 317 316 315 314
325 330 329 328 327 327 328 325 324 324 322 324 323 322 320 321 320 316 317 318 318 317 316 316 317 316 314 317 321 320 320 321 321 320 316 318 321 321 321 319 318 317 315
324 328 330 329 327 327 327 325 326 323 323 322 323 322 320 320 320 315 317 319 319 316 316 320 319 318 316 320 318 318 320 320 321 320 319 318 319 319 319 320 320 319 318
325 326 330 329 328 326 327 325 325 323 322 324 322 322 322 320 320 320 317 317 318 318 318 318 318 318 318 316 318 317 317 320 320 319 319 318 317 318 319 320 321 320 321
325 326 329 329 328 326 326 326 325 323 323 321 323 322 323 323 320 320 319 317 316 317 317 317 317 317 317 317 318 319 317 318 317 319 318 318 317 316 316 319 320 320 320
325 325 327 329 329 326 326 326 325 324 322 324 323 324 321 323 321 321 320 319 318 318 318 317 316 316 318 318 318 318 317 316 318 319 318 317 316 316 316 317 318 318 320
324 326 327 329 329 327 326 326 325 324 324 322 322 323 324 323 322 323 322 320 319 319 318 317 317 316 318 319 318 319 318 317 317 318 316 315 316 316 316 317 316 317 318
325 326 327 329 330 328 326 326 325 324 324 324 322 324 324 323 322 322 322 322 321 321 319 318 318 319 319 319 318 317 319 318 317 317 317 317 318 317 316 317 317 316 318
324 326 327 328 330 329 328 326 325 325 324 324 324 322 324 324 325 322 323 321 322 322 321 318 319 319 319 319 319 318 318 320 318 317 317 318 317 318 317 317 318 318 319
323 325 328 328 330 330 330 328 327 325 324 325 325 324 322 323 324 323 323 323 323 323 321 321 321 320 320 319 318 318 319 319 319 318 319 319 319 319 319 320 320 320 320
322 322 323 328 329 330 330 330 329 328 326 324 325 326 325 323 321 322 324 324 323 324 323 322 322 321 320 319 320 318 319 319 317 316 318 319 320 320 321 321 321 321 321
322 322 322 322 322 326 329 329 330 330 328 327 324 325 326 326 325 325 324 323 323 324 323 323 323 322 322 322 322 321 320 320 320 319 319 320 320 321 321 321 321 322 322
321 321 322 322 322 322 322 320 327 329 329 329 328 326 325 325 325 325 326 326 326 325 324 324 324 324 322 323 323 322 322 322 322 322 322 322 322 322 321 322 322 322 321
319 320 320 322 323 323 323 322 321 320 328 328 328 328 327 325 325 326 325 324 325 325 325 324 325 324 324 323 322 322 323 323 323 323 323 323 322 322 322 321 320 320 320
317 317 318 320 319 319 321 323 322 321 320 323 328 328 328 327 326 326 325 325 325 325 325 324 324 324 324 324 324 324 323 323 322 322 321 321 321 321 321 320 320 320 320
315 315 316 315 315 317 319 321 319 322 323 321 322 328 328 328 327 327 326 326 325 325 325 325 324 324 323 323 323 322 322 321 321 321 320 319 319 320 320 321 320 318 314
311 311 311 310 313 315 317 318 320 322 322 321 321 321 325 328 327 327 327 326 326 325 325 325 324 323 323 322 322 321 322 321 321 321 321 320 320 320 319 317 313 310 306
307 307 307 308 310 312 313 315 316 318 318 319 319 322 322 326 328 327 326 326 326 326 325 323 323 322 322 322 322 322 323 322 322 321 319 316 314 312 308 305 303 301 298
304 303 302 302 304 305 308 309 310 310 314 315 315 317 320 321 324 326 327 326 326 325 325 324 322 321 320 320 320 320 321 314 309 310 307 304 302 301 299 297 295 294 294
300 299 298 298 303 302 302 303 303 303 307 314 312 310 311 315 319 321 322 323 323 322 323 321 317 312 310 309 306 305 303 304 308 301 299 297 294 294 294 294 293 293 293
296 296 297 298 299 299 300 301 302 301 301 306 309 301 300 302 307 311 312 311 312 310 310 309 307 302 298 295 298 298 297 296 295 293 292 292 292 292 292 291 291 290 289
294 294 294 294 294 296 296 298 299 299 299 300 302 303 294 290 293 296 298 299 297 296 295 293 294 296 296 293 291 293 292 292 292 292 291 291 290 289 288 287 286 286 285
290 291 290 290 289 291 292 295 296 296 296 297 296 297 299 293 293 292 289 289 292 293 290 292 290 289 289 290 291 289 290 289 289 290 288 286 285 284 283 283 282 282 282

GFSMW_850_thetae_072.txt.gz
Theta_e
328 329 329 328 328 327 323 322 325 326 325 325 324 324 326 326 326 326 327 326 324 325 326 317 315 315 311 318 319 319 319 319 319 321 320 321 321 321 321 320 319 320 318
329 330 329 329 328 327 324 323 324 326 326 324 323 326 323 324 325 325 326 326 325 325 325 321 315 316 315 321 323 321 319 319 319 319 320 320 320 320 320 320 320 320 320
329 330 329 329 328 327 325 325 323 322 323 324 323 323 325 323 323 324 326 326 325 323 320 322 316 318 317 321 322 322 320 319 319 319 319 319 320 320 320 320 319 318 319
327 330 330 329 328 328 326 325 326 323 323 323 323 323 322 323 323 324 325 325 324 321 320 321 319 319 320 319 321 323 321 319 319 319 319 318 319 319 318 318 318 317 318
325 329 330 329 328 327 327 325 326 323 321 322 322 323 323 321 324 322 322 323 323 322 320 322 322 321 321 321 322 322 321 320 320 319 318 319 317 314 316 316 316 317 316
326 327 329 329 327 327 327 326 325 325 322 322 322 322 324 321 321 322 322 323 323 323 321 323 323 323 322 321 321 321 319 319 319 318 317 316 317 314 317 318 319 319 319
327 327 328 328 327 327 326 325 326 326 323 321 321 322 323 322 321 322 322 322 322 322 320 322 322 321 321 319 319 319 318 318 319 318 316 315 315 315 315 316 318 319 320
327 327 328 328 328 327 326 326 325 325 323 320 321 322 322 322 322 322 322 322 322 322 320 321 320 320 320 318 318 318 318 318 318 318 316 315 316 316 317 317 319 319 319
326 327 328 328 328 327 327 326 325 324 323 321 321 322 321 321 322 321 321 322 321 321 321 320 318 320 320 319 316 314 314 317 316 315 316 318 317 316 317 320 319 318 319
326 327 328 328 328 328 327 327 325 323 322 321 320 321 321 321 321 321 321 321 321 320 320 319 318 316 317 316 316 315 316 316 316 318 319 319 318 317 317 317 317 317 317
326 327 327 328 328 328 327 327 326 325 323 321 320 320 322 321 320 320 321 321 320 320 318 317 316 316 315 316 316 317 316 317 316 317 318 318 316 316 317 318 318 318 317
323 326 327 325 326 327 328 327 326 326 324 321 321 320 319 322 320 321 320 321 321 321 321 320 317 316 316 316 316 316 316 318 319 318 317 317 317 317 318 317 317 316 317
323 325 326 325 325 326 326 325 326 326 325 324 322 322 322 320 320 321 320 320 320 320 320 320 319 317 318 317 316 316 318 318 318 318 317 316 317 317 318 318 318 318 317
320 320 322 323 324 325 325 325 325 325 325 325 324 324 323 322 322 321 320 320 319 319 320 320 320 320 320 318 318 317 316 317 317 317 317 317 317 316 317 318 318 317 317
315 314 315 318 320 322 323 324 325 325 325 324 324 324 324 324 324 323 322 321 320 320 320 320 320 320 320 320 320 319 318 318 318 318 318 318 318 318 317 318 319 318 317
314 312 312 314 316 317 319 320 322 322 324 325 324 324 324 324 324 324 325 324 323 322 320 319 319 320 321 321 321 321 321 320 320 319 320 319 319 319 318 319 319 319 319
308 308 309 311 312 313 315 317 318 319 320 321 323 324 323 323 324 324 324 324 324 324 324 323 321 320 322 322 322 322 321 320 319 319 319 320 320 321 320 320 320 320 320
309 307 307 308 309 310 311 313 314 316 317 318 319 319 320 321 321 323 323 323 324 325 325 325 324 323 324 323 322 322 322 322 321 321 321 320 320 320 320 320 321 321 320
305 305 306 307 309 309 309 310 310 311 312 313 314 315 317 318 319 320 322 323 324 324 325 325 325 325 325 324 324 324 324 324 324 323 323 322 322 322 322 321 321 321 321
302 303 305 307 308 309 309 310 309 309 309 308 309 310 311 311 314 316 318 320 322 323 324 324 324 324 324 325 325 325 325 324 324 324 323 323 322 321 321 321 321 321 320
302 303 304 304 303 304 305 307 307 308 305 306 306 307 308 308 308 310 312 314 318 319 322 324 322 321 321 322 324 324 325 325 321 321 319 317 317 321 320 316 315 311 306
299 297 297 297 298 300 302 302 303 302 302 303 303 304 304 304 305 307 307 309 312 312 311 310 312 309 306 306 306 318 315 318 319 313 304 299 299 300 303 304 303 297 294
295 296 297 297 298 298 300 300 300 301 301 301 301 301 301 300 302 304 303 302 301 302 301 300 299 299 299 297 296 295 301 300 300 294 294 297 296 292 292 292 292 292 293
293 293 294 294 293 293 294 293 294 295 297 298 298 298 299 299 299 298 297 296 296 295 295 295 294 294 295 295 295 296 293 293 296 293 293 293 293 294 292 290 290 290 289
289 290 290 290 289 291 292 293 292 293 294 294 294 294 294 294 294 293 292 291 290 291 291 290 290 289 288 288 290 291 291 290 290 291 291 291 290 289 289 289 288 288 287
288 289 289 289 289 289 290 290 291 292 292 292 291 290 290 290 290 289 288 288 288 287 287 287 288 287 286 288 289 289 290 289 289 290 288 287 286 284 284 284 283 283 282

GFSMW_850_thetae_078.txt.gz
Theta_e
318 318 321 328 329 329 329 327 326 323 326 326 325 325 327 327 326 325 327 325 326 325 325 325 326 326 324 321 322 320 319 320 320 322 321 320 320 319 319 317 316 313 311
318 317 318 327 329 329 329 327 326 323 324 324 325 324 326 325 325 327 327 327 325 324 325 325 325 326 322 319 320 318 319 319 321 322 321 320 319 318 319 319 319 316 314
316 316 317 322 328 328 328 327 326 322 322 323 327 323 323 323 326 326 326 325 325 325 325 326 326 324 317 313 313 317 319 319 321 321 321 320 320 319 319 319 320 320 319
315 316 320 322 327 327 328 327 326 322 321 323 325 323 322 323 324 325 326 323 323 322 321 319 318 321 312 312 312 318 320 319 320 321 321 320 320 320 320 320 320 320 319
316 317 320 320 325 327 328 327 326 323 321 322 322 320 322 323 324 324 324 325 325 324 322 318 318 319 310 310 309 317 319 319 320 320 320 320 320 319 319 320 320 319 319
317 321 323 323 326 327 328 327 327 324 322 321 320 322 321 322 322 325 324 325 324 325 324 324 320 317 310 311 309 311 311 319 319 318 316 318 320 320 318 318 317 316 316
317 320 322 324 326 327 328 327 327 326 323 322 321 321 322 322 322 323 322 322 323 325 324 325 322 321 315 313 310 309 310 317 317 317 318 319 319 320 319 318 317 314 314
316 317 319 321 325 327 328 328 327 326 324 322 321 320 322 322 322 322 320 320 321 323 323 325 324 324 316 314 315 314 317 319 319 319 318 319 319 319 318 318 318 317 315
320 317 320 321 324 326 328 328 327 327 324 322 321 320 321 321 322 322 320 321 320 321 324 323 323 322 321 319 317 315 316 318 319 320 319 320 319 318 318 317 318 318 316
323 320 323 324 325 326 327 327 327 327 325 323 322 320 321 321 321 322 321 321 321 321 321 322 322 322 321 320 320 318 317 319 318 319 318 319 318 318 317 318 317 316 316
323 323 323 324 325 325 326 327 326 326 325 324 323 321 319 321 320 321 321 321 321 321 321 320 321 323 322 321 321 322 321 320 320 320 320 319 319 319 317 317 317 315 315
321 323 324 325 326 326 327 327 325 326 325 324 323 322 320 320 321 320 320 320 320 320 320 319 320 321 322 321 321 321 321 321 321 321 318 318 317 317 316 316 317 317 317
313 317 321 323 324 326 327 327 325 326 325 325 324 323 322 321 319 319 319 320 320 319 320 320 320 320 321 321 320 320 320 320 320 319 318 318 317 316 317 318 318 317 315
309 312 314 317 319 321 323 324 324 324 324 325 324 324 324 323 322 321 321 320 320 319 319 319 320 320 320 320 319 319 319 319 319 319 318 318 318 317 317 317 317 316 317
304 306 308 312 316 320 322 323 324 324 324 323 322 322 322 323 322 322 323 322 322 322 321 320 319 319 319 319 319 319 319 319 319 319 319 318 318 317 317 317 317 318 318
301 300 302 306 309 313 316 318 320 322 323 323 321 321 321 321 322 322 321 321 320 321 321 322 322 322 320 320 319 319 319 318 318 318 319 319 319 319 319 319 318 318 318
300 300 300 302 303 308 312 315 316 317 321 320 320 319 320 321 321 322 322 320 319 319 319 320 321 322 321 321 321 321 321 320 319 319 319 318 318 318 318 318 318 319 319
301 301 301 302 300 301 303 306 313 313 313 315 316 316 317 317 318 319 320 320 320 320 320 319 320 320 320 320 320 321 321 321 321 321 320 318 318 318 318 318 319 319 320
299 300 303 301 301 302 304 306 306 306 306 307 307 308 309 310 312 314 314 314 315 315 317 317 318 318 319 319 320 320 320 320 319 318 317 318 318 318 318 318 318 316 316
301 303 304 303 304 304 304 305 304 305 305 306 306 306 306 306 307 306 307 308 309 311 311 311 311 311 311 312 315 316 316 316 316 314 312 311 311 312 316 314 315 313 310
298 298 299 300 300 300 301 302 301 302 301 302 303 304 303 302 302 303 304 305 305 306 305 305 304 304 305 306 306 308 309 310 310 308 305 304 303 304 305 306 305 304 299
296 296 296 295 295 297 299 300 300 298 299 300 300 301 300 299 299 300 301 302 301 301 300 299 299 298 299 299 300 300 301 301 301 300 298 296 296 297 298 299 295 294 293
293 294 294 294 294 295 296 296 295 296 297 297 298 299 299 298 298 298 298 299 298 297 296 295 294 293 293 294 294 294 295 295 295 294 292 292 292 292 292 291 291 291 291
290 291 292 292 292 292 293 293 293 294 294 295 295 294 295 295 295 295 294 293 293 293 292 292 291 291 291 290 290 291 291 291 291 291 291 291 291 290 289 289 289 289 288
288 289 290 290 291 291 292 292 293 293 294 294 293 293 294 294 294 294 292 292 290 290 290 289 289 289 289 288 289 289 289 289 289 289 289 289 289 288 287 287 286 285 285
287 288 288 289 289 290 290 290 291 291 292 292 291 290 290 290 291 290 290 290 289 288 288 287 287 287 286 286 287 287 287 287 287 288 288 287 285 285 284 284 283 282 281

GFSMW_850_thetae_084.txt.gz
Theta_e
318 318 319 322 328 331 334 333 329 330 330 329 323 324 326 328 329 328 330 329 328 327 327 327 327 326 327 326 324 321 324 324 324 323 322 322 322 321 322 320 320 319 319
318 318 318 322 326 330 331 330 329 329 330 329 324 323 324 328 328 328 326 326 325 325 325 326 326 327 326 326 323 317 324 324 323 323 322 321 321 320 320 321 322 320 319
318 318 318 320 327 329 329 325 328 330 330 327 323 324 324 325 325 325 324 325 325 325 325 324 325 326 326 325 324 324 324 324 323 323 322 321 321 322 321 321 321 321 319
318 318 318 319 325 328 331 325 329 329 330 327 324 324 324 324 325 325 324 326 324 325 325 326 324 325 325 326 325 325 324 323 323 323 322 321 320 321 322 322 321 321 319
319 319 319 318 325 329 331 327 329 329 329 327 326 325 324 324 325 323 325 325 324 324 324 324 326 325 326 325 325 325 324 323 322 323 323 323 323 322 321 321 321 322 321
322 321 320 320 324 329 332 328 329 329 328 326 327 325 324 323 323 323 326 325 324 323 323 324 324 325 324 325 324 325 324 323 323 322 322 322 322 322 322 321 321 320 321
325 325 323 324 326 330 330 328 329 329 327 326 327 323 324 323 322 324 325 325 324 323 323 323 322 324 324 325 325 324 322 323 322 321 321 321 322 321 321 320 319 319 320
325 326 323 326 327 330 330 329 329 328 327 327 324 321 325 322 322 323 324 324 324 324 323 322 323 324 324 324 323 318 318 323 323 322 320 319 319 320 320 315 318 318 319
321 326 323 327 327 329 328 330 328 328 327 324 321 321 324 323 322 322 323 323 323 323 323 323 322 320 323 322 320 316 310 311 318 320 319 316 318 320 320 316 316 315 316
316 322 325 327 328 328 326 327 328 326 326 324 321 320 322 323 323 323 322 322 321 320 321 323 322 322 318 319 319 314 312 312 312 311 316 318 319 318 319 319 318 318 315
312 317 326 326 327 325 325 326 327 324 326 324 321 320 321 322 322 321 322 321 320 320 321 322 323 322 321 318 317 313 315 311 311 312 313 312 316 317 318 318 318 316 315
308 311 322 325 324 323 323 323 325 325 325 323 321 320 320 321 322 320 323 321 320 320 321 321 322 322 322 321 320 318 315 314 311 310 310 311 313 315 313 315 316 317 317
307 307 313 322 322 323 322 322 324 324 324 322 322 320 319 320 321 324 320 320 320 320 319 320 320 320 321 321 322 322 321 321 317 315 316 314 311 312 314 314 315 317 318
303 302 306 314 318 321 321 322 322 322 323 323 321 321 321 321 321 321 320 319 319 319 319 319 319 319 319 320 321 321 321 321 320 321 321 321 320 320 319 319 319 319 320
301 299 300 305 310 315 319 320 320 320 321 320 320 319 319 319 319 321 320 319 319 319 319 319 318 318 319 320 320 320 320 321 321 321 321 321 320 320 320 320 319 319 319
298 297 296 300 305 309 313 316 317 320 320 320 320 320 320 320 320 320 320 320 320 320 320 320 319 319 319 319 319 320 320 320 319 319 319 319 319 319 319 318 318 318 319
298 296 294 295 298 303 305 309 311 313 317 319 318 318 319 319 320 320 320 320 320 320 320 320 320 320 319 319 320 320 319 319 318 319 319 319 319 318 318 318 318 318 318
300 298 295 295 296 299 300 303 307 309 310 312 315 315 315 315 315 317 317 317 317 317 317 317 317 318 318 319 319 319 319 318 318 317 317 317 317 317 317 317 317 317 316
296 300 299 295 296 298 299 303 302 303 305 306 307 309 311 309 309 314 314 313 312 312 312 312 312 312 313 314 315 316 316 316 314 313 313 313 312 312 311 312 312 312 311
295 296 297 299 294 295 298 302 299 302 304 303 302 299 304 308 308 306 307 308 307 307 306 306 306 306 308 308 309 309 309 309 307 306 305 304 304 304 304 305 305 303 301
292 292 292 293 294 297 301 302 301 300 300 301 304 300 301 302 301 301 301 302 302 302 301 301 301 302 303 303 304 304 303 304 302 301 300 299 298 298 299 299 298 298 295
290 291 293 294 292 294 298 299 299 296 296 297 297 298 298 297 298 299 298 298 298 298 296 295 295 295 295 296 296 297 297 297 297 296 294 294 293 294 295 295 294 293 293
292 291 290 290 292 293 294 296 294 294 294 294 293 295 296 296 293 294 294 293 293 294 292 292 292 292 292 292 293 293 293 293 294 293 292 292 292 292 292 292 291 291 291
292 292 292 291 291 291 292 291 291 292 293 294 294 294 294 293 293 293 292 292 292 291 290 290 290 290 291 291 290 290 290 290 290 289 289 289 289 290 289 289 289 289 288
288 287 288 288 289 291 291 291 289 290 291 291 291 290 291 291 292 292 291 291 290 290 289 289 289 288 289 288 288 288 288 288 288 288 288 288 287 287 286 285 284 283 281
286 286 284 286 287 289 289 289 289 290 290 290 289 288 288 287 287 287 288 287 287 288 288 288 288 287 287 286 287 287 286 286 286 286 286 285 283 281 279 278 277 277 277